Курорт-Баунт

Россия / Республика Бурятия     55°07′33″N   112°54′36″E
темп.,
°C
ветер,
м/с
пор.,
м/с
влажн.,
%
обл.,
%
осадки,
мм/ч
давл.,
гПа
погр.,
м
15 мая, сб
сб1523:000ссз22600 0.0 101526
02:00−1ссз22650 0.0 101513
05:00−1сз11630 0.0 101512
08:00+4з12420 0.0 1012949
11:00+8зсз23280 0.0 10091489
14:00+10зсз45235 0.0 10061948
17:00+10зсз352994 0.0 10042307
20:00+7зсз694434 0.0 1004827
16 мая, вс
вс1623:00+1з58541 0.0 1007276
02:00−1з34655 0.0 100874
05:00−1з23674 0.0 100749
08:00+4юз354795 0.0 1003887
11:00+6з585399 0.1 10011490
14:00+8зсз7104250 0.4 10002173
17:00+6сз10153213 0.0 10032322
20:00+2сз612475 0.0 10071905
17 мая, пн
пн1723:00−1з34604 0.0 100872
02:00−3з22655 0.0 100829
05:00−3зсз226246 0.0 100739
08:00+2з3641100 0.0 10041821
11:00+5сз4631100 0.0 10012423
14:00+6сз6730100 0.1 10002656
17:00+4сз8104099 0.1 10021908
20:00+1сз611441 0.1 10031394
18 мая, вт
вт1823:00−2з226018 0.0 100630
02:00−3ссз228091 0.3 100759
05:00−4ссв118049 0.9 100799
08:00−1зсз564296 1.6 10071814
11:000сз7930100 0.1 10062740
14:00+1зсз7938100 0.2 10062439
17:00+1сз7113297 0.1 10052517
20:00−1зюз22457 0.1 100532
19 мая, ср
ср1923:00−4зсз115290 0.0 100510
02:00−4зсз22555 0.0 100512
05:00−4зсз225921 0.0 100422
08:000зсз5736100 0.1 10022153
11:00+3зсз6828100 0.0 10012661
14:00+4зсз71029100 0.0 10002775
17:00+3сз683498 0.0 10022158
20:000сз47401 0.0 1005714